Los Angeles Downtown, CA

9:56 AM PDT on May 24, 2017 (GMT -0700)
Los Angeles Downtown

Weather History for KCQT - December, 2012

Change the Weather History Date:

Monday, December 3, 2012

  Actual Average Record
Temperature  
Mean Temperature 63 °F 58 °F  
Max Temperature 69 °F 69 °F 89 °F (1958)
Min Temperature 57 °F 48 °F 36 °F (1897)
Degree Days  
Heating Degree Days 2 7  
Month to date heating degree days 6 19  
Since 1 July heating degree days 84 150  
Cooling Degree Days 0 0  
Month to date cooling degree days 0 0  
Year to date cooling degree days 1315 1240  
Growing Degree Days 13 (Base 50)    
Moisture  
Dew Point 58 °F    
Average Humidity 82    
Maximum Humidity 97    
Minimum Humidity 66    
Precipitation  
Precipitation 0.19 in 0.05 in 1.59 in (1880)
Month to date precipitation 0.30 0.15  
Year to date precipitation 6.29 12.75  
Since 1 July precipitation 1.36  
Sea Level Pressure  
Sea Level Pressure 30.13 in    
Wind  
Wind Speed 2 mph (East)    
Max Wind Speed 10 mph    
Max Gust Speed 14 mph    
Visibility 7 miles    
Events Rain    
T = Trace of Precipitation, MM = Missing Value Source: NWS Daily Summary

Daily Weather History Graph

Daily Weather History Graph

Search for Another Location

Airport or City:

Trip Planner

Search our weather history database for the weather conditions in past years. The results will help you decide how hot, cold, wet, or windy it might be!

Date:

Astronomy

Dec. 03, 2012 Rise Set
Actual Time 6:42 AM PST 4:43 PM PST
Civil Twilight 6:15 AM PST 5:10 PM PST
Nautical Twilight 5:44 AM PST 5:41 PM PST
Astronomical Twilight 5:13 AM PST 6:12 PM PST
Moon 9:27 PM PST (12/3) 10:14 AM PST (12/3)
Length of Visible Light 10h 55m
Length of Day
10h 00m
Waning Gibbous, 77% of the Moon is Illuminated
Dec 3
Waning Gibbous
Dec 6
Last Quarter
Dec 13
New
Dec 19
First Quarter
Dec 28
Full

Hourly Weather History & Observations

Time (PST) Temp. Dew Point Humidity Pressure Visibility Wind Dir Wind Speed Gust Speed Precip Events Conditions
12:47 AM 62.1 °F 60.1 °F 93% 30.10 in 7.0 mi Calm Calm - 0.00 in   Overcast
1:26 AM 60.8 °F 60.8 °F 100% 30.10 in 2.5 mi Calm Calm - 0.01 in Rain Light Rain
1:47 AM 60.1 °F 57.9 °F 93% 30.10 in 2.0 mi East 5.8 mph - 0.03 in Rain Rain
1:51 AM 60.8 °F 57.2 °F 88% 30.10 in 1.8 mi ESE 3.5 mph - 0.01 in Rain Rain
2:19 AM 60.8 °F 59.0 °F 94% 30.10 in 1.8 mi East 3.5 mph - 0.07 in Rain Light Rain
2:41 AM 60.8 °F 59.0 °F 94% 30.10 in 2.0 mi East 5.8 mph - 0.10 in Rain Light Rain
2:47 AM 60.1 °F 59.0 °F 96% 30.10 in 2.0 mi East 3.5 mph - 0.10 in Rain Light Rain
2:59 AM 60.8 °F 59.0 °F 94% 30.10 in 2.5 mi East 4.6 mph - 0.01 in Rain Light Rain
3:28 AM 60.8 °F 59.0 °F 94% 30.10 in 3.0 mi Variable 4.6 mph - N/A Rain Light Rain
3:47 AM 60.1 °F 59.0 °F 96% 30.10 in 3.0 mi East 4.6 mph - 0.03 in Rain Light Rain
4:19 AM 60.8 °F 59.0 °F 94% 30.10 in 4.0 mi East 4.6 mph - 0.01 in Rain Light Rain
4:23 AM 60.8 °F 59.0 °F 94% 30.10 in 4.0 mi East 3.5 mph - 0.01 in Rain Light Rain
4:39 AM 60.8 °F 59.0 °F 94% 30.11 in 6.0 mi East 4.6 mph - 0.01 in   Overcast
4:47 AM 60.1 °F 59.0 °F 96% 30.11 in 5.0 mi Variable 4.6 mph - 0.01 in   Overcast
5:40 AM 60.8 °F 59.0 °F 94% 30.12 in 6.0 mi ENE 3.5 mph - N/A   Overcast
5:47 AM 61.0 °F 59.0 °F 93% 30.12 in 7.0 mi East 4.6 mph - N/A   Overcast
5:55 AM 60.8 °F 59.0 °F 94% 30.13 in 7.0 mi East 5.8 mph - N/A   Overcast
6:32 AM 60.8 °F 59.0 °F 94% 30.13 in 7.0 mi East 3.5 mph - N/A   Overcast
6:36 AM 60.8 °F 59.0 °F 94% 30.14 in 7.0 mi East 4.6 mph - N/A   Overcast
6:47 AM 60.1 °F 57.9 °F 93% 30.13 in 4.0 mi East 5.8 mph - 0.00 in Rain Light Rain
7:14 AM 60.8 °F 57.2 °F 88% 30.14 in 4.0 mi East 6.9 mph - 0.00 in Rain Light Rain
7:47 AM 61.0 °F 57.9 °F 90% 30.14 in 10.0 mi East 4.6 mph - 0.00 in   Overcast
8:43 AM 60.8 °F 59.0 °F 94% 30.17 in 9.0 mi East 4.6 mph - N/A   Overcast
8:47 AM 62.1 °F 59.0 °F 90% 30.16 in 7.0 mi East 5.8 mph - N/A   Overcast
9:29 AM 62.6 °F 59.0 °F 88% 30.18 in 1.8 mi East 5.8 mph - 0.01 in Rain Rain
9:40 AM 62.6 °F 60.8 °F 94% 30.18 in 3.0 mi Variable 4.6 mph - 0.02 in Rain Light Rain
9:47 AM 62.1 °F 59.0 °F 90% 30.18 in 8.0 mi ESE 6.9 mph - 0.02 in Rain Light Rain
10:47 AM 63.0 °F 60.1 °F 90% 30.19 in 4.0 mi Calm Calm - 0.00 in Rain Light Rain
11:14 AM 64.4 °F 60.8 °F 88% 30.18 in 10.0 mi Calm Calm - 0.00 in   Overcast
11:47 AM 66.0 °F 60.1 °F 81% 30.17 in 10.0 mi Calm Calm - 0.00 in   Mostly Cloudy
12:47 PM 68.0 °F 57.0 °F 68% 30.13 in 10.0 mi Calm Calm - N/A   Scattered Clouds
1:47 PM 69.1 °F 57.0 °F 65% 30.11 in 10.0 mi Calm Calm - N/A   Clear
2:27 PM 69.8 °F 59.0 °F 68% 30.11 in 10.0 mi West 5.8 mph - N/A   Mostly Cloudy
2:38 PM 68.0 °F 59.0 °F 73% 30.10 in 10.0 mi West 6.9 mph - N/A   Scattered Clouds
2:47 PM 66.9 °F 59.0 °F 76% 30.10 in 10.0 mi West 4.6 mph - N/A   Scattered Clouds
3:47 PM 66.0 °F 57.9 °F 75% 30.11 in 10.0 mi Calm Calm - N/A   Clear
4:47 PM 62.1 °F 57.0 °F 84% 30.11 in 10.0 mi Calm Calm - N/A   Partly Cloudy
5:47 PM 61.0 °F 55.9 °F 83% 30.13 in 10.0 mi Calm Calm - N/A   Clear
6:47 PM 60.1 °F 57.0 °F 90% 30.15 in 10.0 mi Calm Calm - N/A   Clear
7:47 PM 59.0 °F 55.9 °F 90% 30.16 in 10.0 mi Calm Calm - N/A   Clear
8:47 PM 59.0 °F 55.9 °F 90% 30.16 in 10.0 mi Calm Calm - N/A   Clear
9:42 PM 60.8 °F 55.4 °F 82% 30.17 in 10.0 mi Calm Calm - N/A   Partly Cloudy
9:47 PM 60.1 °F 55.9 °F 86% 30.17 in 10.0 mi Calm Calm - N/A   Partly Cloudy
10:47 PM 57.9 °F 54.0 °F 87% 30.18 in 10.0 mi Calm Calm - N/A   Clear
11:47 PM 57.0 °F 55.0 °F 93% 30.18 in 10.0 mi Calm Calm - N/A   Clear